Airfield :
LOGIN :

Register | Disclaimer

   EN    FR    IT 

 










Legend :    VFR   Marginal VFR   IFR   Intensive IFR   Very Intensive IFR
Visi :
Ceiling :
>= 8 km
>= 3000ft
5 to 8 km
1000 to 3000 ft
1500m to 5 km
500 to 1000 ft
800 to 1500m
200 to 500 ft
< 800m
< 200 ft
Symbols :   Thunderstorms  Fog  Heavy snow  Heavy precipitations  Wind > 20 kt
SIGMETs :     Misc.  Thunderstorms  Icing  Turbulence  Mountain Waves  Volcanic Ashes







- Airport Elevation : 143 ft
- IATA code : VDP


EKVD - Kolding Vamdrup

CURRENT METAR :
  • 232120Z AUTO 09015KT 060V120 //// ///////// 12/08 Q1009

EXPIRED METARs :
  • 232050Z AUTO 09015KT //// ///////// 13/04 Q1009
  • 232020Z AUTO 08015KT //// ///////// 13/03 Q1009
  • 231950Z AUTO 08014KT //// ///////// 13/02 Q1009
  • 231920Z AUTO 08015KT //// ///////// 13/01 Q1009
  • 231850Z AUTO 08017KT //// ///////// 14/01 Q1009

Expired Forecast.
No reported NOTAMs for that airfield.



MET'MAP, your aeronautical weather chart ! - Copyright ORBIFLY December 2007 - Disclaimer

ORBIFLY MET'MAP TEAM :

Programming & Development : Alexandra Zaïnal
Concept & Development : Baudouin d'Aumeries
Co-Development & Prog : Marc-Olivier Méhu
Technical & hardware support : Manuel Goepfert

Contact : metmap@orbifly.com




SOURCES & CREDITS :

   NOAA